Ocean King — CZ2591 — position and weather

sailwx.info

Track history (hours):
 
Tides and Currents Weather Stations Pressure Air Temp Water Temp Dewpoint Dewpoint Depression Visibility Wind Speed Wind Dir Waves Ship Positions

Ocean King

Last reported at 2014-Jul-25 10:34 UTC. Time now 2014-Jul-25 11:24 UTC.
Position N 48°39' W 125°04'.

Length 29 m.

Type: Fishing. MMSI: 316003514.

Date/timePositionNaut miles runAvg speedWind from/ knotsBaromVisibWave heightAir tempDewpointWater temp
2014-Jul-25 10:34N 48°39' W 125°04'1010.2
2014-Jul-25 09:33N 48°35' W 124°50'10 9.7
2014-Jul-25 08:33N 48°32' W 124°36'9 8.9
2014-Jul-25 07:33N 48°28' W 124°24'9 9.1
2014-Jul-25 06:33N 48°26' W 124°11'10 9.5
2014-Jul-25 05:31N 48°22' W 123°57'10 9.7
2014-Jul-25 04:32N 48°19' W 123°43'1010.0
2014-Jul-25 03:32N 48°20' W 123°28'9 9.7
2014-Jul-25 02:34N 48°26' W 123°17'10 9.8
2014-Jul-25 01:33N 48°35' W 123°19'9 8.8
2014-Jul-25 00:33N 48°42' W 123°27'8 8.3
2014-Jul-24 23:33N 48°49' W 123°34'10 9.5
2014-Jul-24 22:33N 48°57' W 123°42'9 9.3
2014-Jul-24 21:33N 49°06' W 123°47'4 3.4
2014-Jul-24 20:18N 49°09' W 123°52'0 0.0
2014-Jul-24 12:30N 49°09' W 123°52'0 0.0
2014-Jul-24 11:30N 49°09' W 123°52'0 0.0
2014-Jul-24 09:33N 49°09' W 123°52'0 0.0
2014-Jul-24 07:12N 49°09' W 123°52'0 0.0
2014-Jul-24 06:30N 49°09' W 123°52'0 0.0
2014-Jul-24 05:30N 49°09' W 123°52'0 0.0
2014-Jul-24 04:30N 49°09' W 123°52'0 0.0
2014-Jul-24 00:31N 49°09' W 123°52'6 5.7
2014-Jul-23 23:33N 49°13' W 123°46'10 9.7
2014-Jul-23 22:33N 49°05' W 123°37'10 9.6
2014-Jul-23 21:33N 48°56' W 123°31'10 9.7
2014-Jul-23 20:33N 48°48' W 123°23'9 9.2
2014-Jul-23 19:33N 48°39' W 123°21'10 9.6
2014-Jul-23 18:33N 48°30' W 123°16'9 8.8
2014-Jul-23 17:33N 48°22' W 123°21'9 9.1
2014-Jul-23 16:32N 48°18' W 123°34'9 8.7
2014-Jul-23 15:33N 48°20' W 123°47'8 8.2
2014-Jul-23 14:33N 48°22' W 123°59'7 7.4
2014-Jul-23 13:33N 48°24' W 124°09'7 7.4
2014-Jul-23 12:33N 48°27' W 124°19'8 7.6
2014-Jul-23 11:33N 48°30' W 124°30'7 7.0
2014-Jul-23 10:33N 48°33' W 124°40'8 8.0
2014-Jul-23 09:33N 48°36' W 124°51'8 8.3
2014-Jul-23 08:33N 48°39' W 125°03'9 8.4
2014-Jul-23 07:33N 48°43' W 125°14'8 8.6
2014-Jul-23 06:33N 48°47' W 125°25'9 9.0
2014-Jul-23 05:33N 48°52' W 125°36'9 9.1
2014-Jul-23 04:33N 48°58' W 125°46'9 9.3
2014-Jul-23 03:33N 49°04' W 125°57'9 8.9
2014-Jul-23 02:33N 49°11' W 126°07'5 0.5
2014-Jul-22 17:33N 49°14' W 126°01'7 6.2
2014-Jul-22 16:29N 49°09' W 125°54'0 0.1
2014-Jul-22 14:08N 49°09' W 125°55'0 0.0
2014-Jul-22 09:14N 49°09' W 125°55'3 5.1
2014-Jul-22 08:34N 49°06' W 125°55'9 8.6
2014-Jul-22 07:33N 48°60' W 125°45'9 9.1
2014-Jul-22 06:34N 48°55' W 125°33'9 8.8
2014-Jul-22 05:34N 48°56' W 125°20'9 8.8
2014-Jul-22 04:31N 48°57' W 125°06'10 8.2
2014-Jul-22 03:18N 49°01' W 124°52'7 8.9
2014-Jul-22 02:33N 49°07' W 124°49'  
2014-Jul-18 23:33N 49°14' W 124°49'0 0.0
2014-Jul-18 22:33N 49°14' W 124°49'0 0.0
2014-Jul-18 21:33N 49°14' W 124°49'0 0.0
2014-Jul-18 20:33N 49°14' W 124°49'0 0.0
2014-Jul-18 19:33N 49°14' W 124°49'0 0.0
2014-Jul-18 18:33N 49°14' W 124°49'0 0.0
2014-Jul-18 17:33N 49°14' W 124°49'0 0.0
2014-Jul-18 16:33N 49°14' W 124°49'0 0.0
2014-Jul-18 15:33N 49°14' W 124°49'0 0.0
2014-Jul-18 14:33N 49°14' W 124°49'0 0.0
2014-Jul-18 13:33N 49°14' W 124°49'0 0.0
2014-Jul-18 12:33N 49°14' W 124°49'0 0.0
2014-Jul-18 11:33N 49°14' W 124°49'0 0.0
2014-Jul-18 10:33N 49°14' W 124°49'0 0.0
2014-Jul-18 09:33N 49°14' W 124°49'0 0.0
2014-Jul-18 08:33N 49°14' W 124°49'0 0.0
2014-Jul-18 07:33N 49°14' W 124°49'0 0.0
2014-Jul-18 06:33N 49°14' W 124°49'0 0.0
2014-Jul-18 05:33N 49°14' W 124°49'0 0.0
2014-Jul-18 04:33N 49°14' W 124°49'0 0.0
2014-Jul-18 03:33N 49°14' W 124°49'0 0.0
2014-Jul-18 02:33N 49°14' W 124°49'0 0.0
2014-Jul-18 01:33N 49°14' W 124°49'0 0.0
2014-Jul-18 00:33N 49°14' W 124°49'0 0.0
2014-Jul-17 23:33N 49°14' W 124°49'0 0.0
2014-Jul-17 22:33N 49°14' W 124°49'0 0.0
2014-Jul-17 12:29N 49°14' W 124°49'0 0.0
2014-Jul-17 11:33N 49°14' W 124°49'0 0.0
2014-Jul-17 10:33N 49°14' W 124°49'0 0.0
2014-Jul-17 09:33N 49°14' W 124°49'0 0.0
2014-Jul-17 08:33N 49°14' W 124°49'0 0.0
2014-Jul-17 07:33N 49°14' W 124°49'0 0.0
2014-Jul-17 06:33N 49°14' W 124°49'0 0.0
2014-Jul-17 05:33N 49°14' W 124°49'0 0.0
2014-Jul-17 04:33N 49°14' W 124°49'0 0.0
2014-Jul-17 03:33N 49°14' W 124°49'0 0.0
2014-Jul-17 02:33N 49°14' W 124°49'0 0.0
2014-Jul-17 01:33N 49°14' W 124°49'0 0.0
2014-Jul-17 00:33N 49°14' W 124°49'0 0.0
2014-Jul-16 23:33N 49°14' W 124°49'0 0.0
2014-Jul-16 22:33N 49°14' W 124°49'0 0.0
2014-Jul-16 21:33N 49°14' W 124°49'0 0.0
2014-Jul-16 20:33N 49°14' W 124°49'0 0.0
2014-Jul-16 19:33N 49°14' W 124°49'0 0.0
2014-Jul-16 18:33N 49°14' W 124°49'0 0.0
2014-Jul-16 17:33N 49°14' W 124°49'0 0.0
2014-Jul-16 16:33N 49°14' W 124°49'0 0.0
2014-Jul-16 15:33N 49°14' W 124°49'0 0.0
2014-Jul-16 14:33N 49°14' W 124°49'0 0.0
2014-Jul-16 13:33N 49°14' W 124°49'0 0.0
2014-Jul-16 12:33N 49°14' W 124°49'0 0.0
2014-Jul-16 11:33N 49°14' W 124°49'0 0.0
2014-Jul-16 10:33N 49°14' W 124°49'0 0.0
2014-Jul-16 09:33N 49°14' W 124°49'0 0.0
2014-Jul-16 08:33N 49°14' W 124°49'0 0.0
2014-Jul-16 07:33N 49°14' W 124°49'0 0.0
2014-Jul-16 06:33N 49°14' W 124°49'0 0.0
2014-Jul-16 05:33N 49°14' W 124°49'0 0.0
2014-Jul-16 04:33N 49°14' W 124°49'0 0.0
2014-Jul-16 03:33N 49°14' W 124°49'0 0.0
2014-Jul-16 02:33N 49°14' W 124°49'0 0.0
2014-Jul-16 01:33N 49°14' W 124°49'0 0.0
2014-Jul-16 00:33N 49°14' W 124°49'0 0.0
2014-Jul-15 23:33N 49°14' W 124°49'0 0.0
2014-Jul-15 22:33N 49°14' W 124°49'0 0.0
2014-Jul-15 21:33N 49°14' W 124°49'0 0.0
2014-Jul-15 20:33N 49°14' W 124°49'0 0.0
2014-Jul-15 19:33N 49°14' W 124°49'0 0.0
2014-Jul-15 18:33N 49°14' W 124°49'0 0.0
2014-Jul-15 17:33N 49°14' W 124°49'0 0.0
2014-Jul-15 16:33N 49°14' W 124°49'1 0.7
2014-Jul-15 15:33N 49°14' W 124°49'0 0.0
2014-Jul-15 14:33N 49°14' W 124°49'0 0.0
2014-Jul-15 13:33N 49°14' W 124°49'0 0.1
2014-Jul-15 12:33N 49°14' W 124°49'0 0.0
2014-Jul-15 11:33N 49°14' W 124°49'  
Track history (hours):
 
Tides and Currents Weather Stations Pressure Air Temp Water Temp Dewpoint Dewpoint Depression Visibility Wind Speed Wind Dir Waves Ship Positions

Ocean King

Last reported at 2014-Jul-25 10:34 UTC. Time now 2014-Jul-25 11:24 UTC.
Position N 48°39' W 125°04'.

Length 29 m.

Type: Fishing. MMSI: 316003514.

Date/timePositionNaut miles runAvg speedWind from/ knotsBaromVisibWave heightAir tempDewpointWater temp
2014-Jul-25 10:34N 48°39' W 125°04'1010.2
2014-Jul-25 09:33N 48°35' W 124°50'10 9.7
2014-Jul-25 08:33N 48°32' W 124°36'9 8.9
2014-Jul-25 07:33N 48°28' W 124°24'9 9.1
2014-Jul-25 06:33N 48°26' W 124°11'10 9.5
2014-Jul-25 05:31N 48°22' W 123°57'10 9.7
2014-Jul-25 04:32N 48°19' W 123°43'1010.0
2014-Jul-25 03:32N 48°20' W 123°28'9 9.7
2014-Jul-25 02:34N 48°26' W 123°17'10 9.8
2014-Jul-25 01:33N 48°35' W 123°19'9 8.8
2014-Jul-25 00:33N 48°42' W 123°27'8 8.3
2014-Jul-24 23:33N 48°49' W 123°34'10 9.5
2014-Jul-24 22:33N 48°57' W 123°42'9 9.3
2014-Jul-24 21:33N 49°06' W 123°47'4 3.4
2014-Jul-24 20:18N 49°09' W 123°52'0 0.0
2014-Jul-24 12:30N 49°09' W 123°52'0 0.0
2014-Jul-24 11:30N 49°09' W 123°52'0 0.0
2014-Jul-24 09:33N 49°09' W 123°52'0 0.0
2014-Jul-24 07:12N 49°09' W 123°52'0 0.0
2014-Jul-24 06:30N 49°09' W 123°52'0 0.0
2014-Jul-24 05:30N 49°09' W 123°52'0 0.0
2014-Jul-24 04:30N 49°09' W 123°52'0 0.0
2014-Jul-24 00:31N 49°09' W 123°52'6 5.7
2014-Jul-23 23:33N 49°13' W 123°46'10 9.7
2014-Jul-23 22:33N 49°05' W 123°37'10 9.6
2014-Jul-23 21:33N 48°56' W 123°31'10 9.7
2014-Jul-23 20:33N 48°48' W 123°23'9 9.2
2014-Jul-23 19:33N 48°39' W 123°21'10 9.6
2014-Jul-23 18:33N 48°30' W 123°16'9 8.8
2014-Jul-23 17:33N 48°22' W 123°21'9 9.1
2014-Jul-23 16:32N 48°18' W 123°34'9 8.7
2014-Jul-23 15:33N 48°20' W 123°47'8 8.2
2014-Jul-23 14:33N 48°22' W 123°59'7 7.4
2014-Jul-23 13:33N 48°24' W 124°09'7 7.4
2014-Jul-23 12:33N 48°27' W 124°19'8 7.6
2014-Jul-23 11:33N 48°30' W 124°30'7 7.0
2014-Jul-23 10:33N 48°33' W 124°40'8 8.0
2014-Jul-23 09:33N 48°36' W 124°51'8 8.3
2014-Jul-23 08:33N 48°39' W 125°03'9 8.4
2014-Jul-23 07:33N 48°43' W 125°14'8 8.6
2014-Jul-23 06:33N 48°47' W 125°25'9 9.0
2014-Jul-23 05:33N 48°52' W 125°36'9 9.1
2014-Jul-23 04:33N 48°58' W 125°46'9 9.3
2014-Jul-23 03:33N 49°04' W 125°57'9 8.9
2014-Jul-23 02:33N 49°11' W 126°07'5 0.5
2014-Jul-22 17:33N 49°14' W 126°01'7 6.2
2014-Jul-22 16:29N 49°09' W 125°54'0 0.1
2014-Jul-22 14:08N 49°09' W 125°55'0 0.0
2014-Jul-22 09:14N 49°09' W 125°55'3 5.1
2014-Jul-22 08:34N 49°06' W 125°55'9 8.6
2014-Jul-22 07:33N 48°60' W 125°45'9 9.1
2014-Jul-22 06:34N 48°55' W 125°33'9 8.8
2014-Jul-22 05:34N 48°56' W 125°20'9 8.8
2014-Jul-22 04:31N 48°57' W 125°06'10 8.2
2014-Jul-22 03:18N 49°01' W 124°52'7 8.9
2014-Jul-22 02:33N 49°07' W 124°49'  
2014-Jul-18 23:33N 49°14' W 124°49'0 0.0
2014-Jul-18 22:33N 49°14' W 124°49'0 0.0
2014-Jul-18 21:33N 49°14' W 124°49'0 0.0
2014-Jul-18 20:33N 49°14' W 124°49'0 0.0
2014-Jul-18 19:33N 49°14' W 124°49'0 0.0
2014-Jul-18 18:33N 49°14' W 124°49'0 0.0
2014-Jul-18 17:33N 49°14' W 124°49'0 0.0
2014-Jul-18 16:33N 49°14' W 124°49'0 0.0
2014-Jul-18 15:33N 49°14' W 124°49'0 0.0
2014-Jul-18 14:33N 49°14' W 124°49'0 0.0
2014-Jul-18 13:33N 49°14' W 124°49'0 0.0
2014-Jul-18 12:33N 49°14' W 124°49'0 0.0
2014-Jul-18 11:33N 49°14' W 124°49'0 0.0
2014-Jul-18 10:33N 49°14' W 124°49'0 0.0
2014-Jul-18 09:33N 49°14' W 124°49'0 0.0
2014-Jul-18 08:33N 49°14' W 124°49'0 0.0
2014-Jul-18 07:33N 49°14' W 124°49'0 0.0
2014-Jul-18 06:33N 49°14' W 124°49'0 0.0
2014-Jul-18 05:33N 49°14' W 124°49'0 0.0
2014-Jul-18 04:33N 49°14' W 124°49'0 0.0
2014-Jul-18 03:33N 49°14' W 124°49'0 0.0
2014-Jul-18 02:33N 49°14' W 124°49'0 0.0
2014-Jul-18 01:33N 49°14' W 124°49'0 0.0
2014-Jul-18 00:33N 49°14' W 124°49'0 0.0
2014-Jul-17 23:33N 49°14' W 124°49'0 0.0
2014-Jul-17 22:33N 49°14' W 124°49'0 0.0
2014-Jul-17 12:29N 49°14' W 124°49'0 0.0
2014-Jul-17 11:33N 49°14' W 124°49'0 0.0
2014-Jul-17 10:33N 49°14' W 124°49'0 0.0
2014-Jul-17 09:33N 49°14' W 124°49'0 0.0
2014-Jul-17 08:33N 49°14' W 124°49'0 0.0
2014-Jul-17 07:33N 49°14' W 124°49'0 0.0
2014-Jul-17 06:33N 49°14' W 124°49'0 0.0
2014-Jul-17 05:33N 49°14' W 124°49'0 0.0
2014-Jul-17 04:33N 49°14' W 124°49'0 0.0
2014-Jul-17 03:33N 49°14' W 124°49'0 0.0
2014-Jul-17 02:33N 49°14' W 124°49'0 0.0
2014-Jul-17 01:33N 49°14' W 124°49'0 0.0
2014-Jul-17 00:33N 49°14' W 124°49'0 0.0
2014-Jul-16 23:33N 49°14' W 124°49'0 0.0
2014-Jul-16 22:33N 49°14' W 124°49'0 0.0
2014-Jul-16 21:33N 49°14' W 124°49'0 0.0
2014-Jul-16 20:33N 49°14' W 124°49'0 0.0
2014-Jul-16 19:33N 49°14' W 124°49'0 0.0
2014-Jul-16 18:33N 49°14' W 124°49'0 0.0
2014-Jul-16 17:33N 49°14' W 124°49'0 0.0
2014-Jul-16 16:33N 49°14' W 124°49'0 0.0
2014-Jul-16 15:33N 49°14' W 124°49'0 0.0
2014-Jul-16 14:33N 49°14' W 124°49'0 0.0
2014-Jul-16 13:33N 49°14' W 124°49'0 0.0
2014-Jul-16 12:33N 49°14' W 124°49'0 0.0
2014-Jul-16 11:33N 49°14' W 124°49'0 0.0
2014-Jul-16 10:33N 49°14' W 124°49'0 0.0
2014-Jul-16 09:33N 49°14' W 124°49'0 0.0
2014-Jul-16 08:33N 49°14' W 124°49'0 0.0
2014-Jul-16 07:33N 49°14' W 124°49'0 0.0
2014-Jul-16 06:33N 49°14' W 124°49'0 0.0
2014-Jul-16 05:33N 49°14' W 124°49'0 0.0
2014-Jul-16 04:33N 49°14' W 124°49'0 0.0
2014-Jul-16 03:33N 49°14' W 124°49'0 0.0
2014-Jul-16 02:33N 49°14' W 124°49'0 0.0
2014-Jul-16 01:33N 49°14' W 124°49'0 0.0
2014-Jul-16 00:33N 49°14' W 124°49'0 0.0
2014-Jul-15 23:33N 49°14' W 124°49'0 0.0
2014-Jul-15 22:33N 49°14' W 124°49'0 0.0
2014-Jul-15 21:33N 49°14' W 124°49'0 0.0
2014-Jul-15 20:33N 49°14' W 124°49'0 0.0
2014-Jul-15 19:33N 49°14' W 124°49'0 0.0
2014-Jul-15 18:33N 49°14' W 124°49'0 0.0
2014-Jul-15 17:33N 49°14' W 124°49'0 0.0
2014-Jul-15 16:33N 49°14' W 124°49'1 0.7
2014-Jul-15 15:33N 49°14' W 124°49'0 0.0
2014-Jul-15 14:33N 49°14' W 124°49'0 0.0
2014-Jul-15 13:33N 49°14' W 124°49'0 0.1
2014-Jul-15 12:33N 49°14' W 124°49'0 0.0
2014-Jul-15 11:33N 49°14' W 124°49'  

Dump ship's entire track history